Weather History for Casper, WY

Change the Weather History Date:

Sunday, July 21, 2013

  Actual Average Record
Temperature  
Mean Temperature 74 °F 72 °F  
Max Temperature 96 °F 89 °F 100 °F (1982)
Min Temperature 51 °F 54 °F 39 °F (1949)
Degree Days  
Heating Degree Days 0 0  
Month to date heating degree days 0 11  
Since 1 June heating degree days 72 147  
Since 1 July heating degree days 0 11  
Cooling Degree Days 9 7  
Month to date cooling degree days 171 120  
Year to date cooling degree days 264 177  
Since 1 June cooling degree days 254 173  
Growing Degree Days 24 (Base 50)    
Moisture  
Dew Point 43 °F    
Average Humidity 48    
Maximum Humidity 89    
Minimum Humidity 7    
Precipitation  
Precipitation 0.00 in 0.05 in 1.33 in (1951)
Month to date precipitation 1.32 0.95  
Year to date precipitation 8.16 7.77  
Snow  
Snow 0.00 in 0.00 in - ()
Month to date snowfall 0.0 0.0  
Since 1 June snowfall 0.0 0.1  
Since 1 July snowfall 0.0 0.0  
Snow Depth 0.00 in    
Sea Level Pressure  
Sea Level Pressure 29.73 in    
Wind  
Wind Speed 7 mph (NNE)    
Max Wind Speed 20 mph    
Max Gust Speed 28 mph    
Visibility 10 miles    
Events      
T = Trace of Precipitation, MM = Missing Value Source: NWS Daily Summary

Daily Weather History Graph

Daily Weather History Graph

Search for Another Location

Airport:

Trip Planner

Search our weather history database for the weather conditions in past years. The results will help you decide how hot, cold, wet, or windy it might be!

Date:

Astronomy

Jul. 21, 2013 Rise Set
Actual Time 5:46 AM MDT 8:37 PM MDT
Civil Twilight 5:12 AM MDT 9:11 PM MDT
Nautical Twilight 4:30 AM MDT 9:53 PM MDT
Astronomical Twilight 3:41 AM MDT 10:41 PM MDT
Moon 7:37 PM MDT (7/21) 4:35 AM MDT (7/21)
Length of Visible Light 15h 58m
Length of Day
14h 51m
Waxing Gibbous, 98% of the Moon is Illuminated
Jul 21
Waxing Gibbous
Jul 22
Full
Jul 29
Last Quarter
Aug 6
New
Aug 14
First Quarter

Hourly Weather History & Observations

Time (MDT) Temp. Dew Point Humidity Pressure Visibility Wind Dir Wind Speed Gust Speed Precip Events Conditions
12:53 AM 63.0 °F 52.0 °F 67% 29.78 in 10.0 mi NE 6.9 mph - N/A   Clear
1:53 AM 61.0 °F 51.1 °F 70% 29.78 in 10.0 mi NNE 4.6 mph - N/A   Clear
2:53 AM 57.9 °F 52.0 °F 81% 29.77 in 10.0 mi Calm Calm - N/A   Clear
3:53 AM 55.9 °F 51.1 °F 84% 29.77 in 10.0 mi Calm Calm - N/A   Clear
4:53 AM 52.0 °F 48.9 °F 89% 29.78 in 10.0 mi NW 3.5 mph - N/A   Clear
5:53 AM 52.0 °F 48.0 °F 86% 29.79 in 10.0 mi Calm Calm - N/A   Clear
6:53 AM 57.9 °F 51.1 °F 78% 29.78 in 10.0 mi Calm Calm - N/A   Clear
7:53 AM 64.9 °F 52.0 °F 63% 29.76 in 10.0 mi SW 5.8 mph - N/A   Clear
8:53 AM 70.0 °F 53.1 °F 55% 29.75 in 10.0 mi East 5.8 mph - N/A   Clear
9:53 AM 75.0 °F 52.0 °F 44% 29.75 in 10.0 mi Variable 4.6 mph - N/A   Clear
10:53 AM 78.1 °F 52.0 °F 40% 29.74 in 10.0 mi ESE 8.1 mph - N/A   Clear
11:53 AM 84.0 °F 51.1 °F 32% 29.72 in 10.0 mi East 8.1 mph - N/A   Clear
12:53 PM 89.1 °F 46.9 °F 23% 29.69 in 10.0 mi Variable 3.5 mph - N/A   Clear
1:53 PM 91.0 °F 43.0 °F 19% 29.67 in 10.0 mi Variable 6.9 mph - N/A   Clear
2:53 PM 91.9 °F 37.0 °F 15% 29.66 in 10.0 mi Calm Calm - N/A   Clear
3:20 PM 95.0 °F 24.8 °F 8% 29.88 in 10.0 mi WNW 11.5 mph 19.6 mph N/A   Clear
3:53 PM 95.0 °F 25.0 °F 8% 29.65 in 10.0 mi NW 17.3 mph 24.2 mph N/A   Clear
4:53 PM 95.0 °F 23.0 °F 8% 29.66 in 10.0 mi WNW 16.1 mph 24.2 mph N/A   Clear
5:53 PM 89.1 °F 32.0 °F 13% 29.67 in 10.0 mi North 12.7 mph 19.6 mph N/A   Clear
6:53 PM 89.1 °F 30.9 °F 12% 29.67 in 10.0 mi North 11.5 mph 20.7 mph N/A   Clear
7:53 PM 84.0 °F 36.0 °F 18% 29.68 in 10.0 mi NNE 12.7 mph - N/A   Clear
8:53 PM 80.1 °F 41.0 °F 25% 29.70 in 10.0 mi NE 11.5 mph - N/A   Clear
9:53 PM 75.0 °F 43.0 °F 32% 29.73 in 10.0 mi ENE 13.8 mph - N/A   Clear
10:53 PM 75.0 °F 41.0 °F 29% 29.75 in 10.0 mi ENE 13.8 mph - N/A   Clear
11:53 PM 70.0 °F 41.0 °F 35% 29.77 in 10.0 mi ENE 8.1 mph - N/A   Clear